Retour au catalogue

TYVAK-0130

ActifScienceVLEO
NORAD 48606·PAYLOAD·🇺🇸 United States

Lancé May 15, 2021 depuis Cape Canaveral Space Force Station

Loading…

Prochains Passages (prochaines 24 heures)

TLE

FraisSource: Space-Track

Époque: Sep 14, 2026, 13:57 UTC

1 48606U 21041BF  26257.58151432  .00004506  00000-0  17191-3 0  9990
2 48606  52.9956 330.5779 0011038  89.0301 271.1962 15.28650555294050

Suivez TYVAK-0130 en temps réel avec AllMySat

Download on the App Store